Temperature
9 9 9 9 9 9 9 9 9 9 9 9 9 9 9 9 9 9 9 9 9 9 9 9 8 8 8 8 9 9 9 9 9 9 9 9 9 9 9 9 9 9 10
9 8 8 8 8 9 9 9 9 9 9 8 8 9 9 8 8 8 8 8 8 8 8 8 8 8 8 8 8 8 8 8 8 8 8 8 8 8 8 8 9 9 9
8 8 8 8 8 8 8 8 8 8 8 8 8 8 8 8 8 8 8 8 8 8 8 8 8 8 7 7 7 7 7 7 7 8 8 8 8 8 8 8 8 8 8
8 8 8 8 8 8 8 8 8 8 8 8 8 8 7 7 7 7 7 7 7 7 7 7 7 7 7 7 7 7 7 7 7 7 7 7 7 7 7 7 7 7 7
8 8 8 8 7 7 7 7 8 8 7 7 7 7 7 7 7 7 7 7 7 7 7 7 7 7 6 6 6 6 6 6 6 6 7 7 7 7 7 7 7 7 7
7 7 7 7 7 7 7 7 7 7 7 7 7 7 6 6 6 6 6 6 6 6 6 6 6 6 6 6 6 6 6 6 6 6 6 6 6 6 6 6 6 7 7
7 7 7 7 7 7 7 7 7 7 6 6 6 6 5 5 5 5 5 5 5 5 5 5 5 5 5 5 6 6 5 5 5 5 6 6 6 6 6 6 6 6 6
7 7 7 7 6 6 6 6 6 6 6 6 6 5 5 4 4 5 5 5 5 5 5 5 5 5 5 5 5 5 5 5 5 5 5 5 5 5 5 5 5 5 5
6 6 6 6 6 6 6 6 6 6 6 5 5 5 5 4 4 4 4 4 4 4 4 4 4 4 4 4 4 5 5 5 5 4 5 4 5 5 5 5 5 5 5
6 6 6 6 6 5 5 5 5 5 5 5 5 5 4 4 4 3 3 3 4 4 4 4 4 4 4 4 4 4 4 4 4 4 4 4 4 4 4 4 4 4 4
5 5 5 5 5 5 5 5 5 5 5 5 4 4 4 4 4 4 3 3 3 3 3 3 3 3 3 3 3 3 3 3 3 3 3 3 3 4 4 4 4 4 4
5 5 5 5 5 5 5 5 5 4 4 4 4 4 4 4 4 3 3 2 2 2 3 3 3 3 3 3 3 3 3 3 3 3 3 3 3 3 3 3 3 3 3
4 4 4 4 4 4 4 4 4 4 4 4 4 3 3 3 3 3 3 2 2 2 2 2 2 2 2 2 3 3 2 3 2 2 2 3 3 3 3 3 3 3 2
4 4 4 4 4 4 4 4 4 4 3 3 3 3 3 3 3 3 3 2 2 1 1 2 2 2 2 2 2 2 2 2 2 2 2 2 2 2 2 2 2 2 2
4 4 3 3 3 3 3 3 3 3 3 3 2 2 2 2 2 2 2 2 2 1 0 1 1 1 1 1 1 1 1 1 1 1 2 2 2 2 2 2 2 2 2
3 3 3 3 3 3 3 3 3 2 2 2 2 2 2 2 2 2 2 1 1 1 0 0 1 1 1 0 0 1 1 1 1 1 1 1 1 1 1 1 1 1 1
2 2 2 2 2 2 2 2 2 2 2 2 1 1 1 1 1 1 1 1 1 1 0 0 0 -0 -0 -0 -0 -0 0 0 0 0 0 0 0 0 0 0 0 0 0
1 2 2 2 2 2 2 2 1 1 1 1 1 1 1 1 0 0 1 0 0 0 0 0 -0 -1 -1 -1 -1 -1 -1 -1 -1 -1 -0 -1 -1 -1 -1 -1 -1 -0 -0
1 1 1 1 1 1 1 1 1 1 0 0 0 -0 -0 -0 0 0 0 0 -0 -0 -0 -1 -1 -1 -1 -1 -1 -1 -1 -1 -1 -1 -1 -1 -1 -1 -1 -1 -1 -1 -1
0 0 0 0 0 1 0 0 0 -0 -0 -0 -1 -1 -1 -1 -1 -1 -1 -1 -1 -1 -1 -1 -1 -2 -2 -2 -2 -2 -2 -2 -2 -2 -2 -2 -2 -2 -2 -2 -2 -2 -2
-1 -1 -0 -0 -0 -0 -0 -0 -1 -1 -1 -1 -1 -1 -1 -1 -1 -2 -2 -1 -2 -2 -2 -2 -2 -2 -3 -3 -3 -3 -3 -3 -3 -3 -3 -3 -3 -3 -3 -3 -3 -3 -3
-1 -1 -1 -1 -1 -1 -1 -1 -1 -2 -2 -2 -2 -2 -2 -2 -2 -2 -2 -2 -2 -2 -2 -2 -3 -3 -3 -3 -3 -4 -4 -4 -4 -4 -3 -3 -3 -3 -3 -3 -4 -4 -4
-2 -2 -2 -2 -2 -2 -2 -2 -2 -2 -3 -3 -3 -3 -3 -3 -3 -3 -3 -3 -3 -3 -3 -3 -3 -3 -3 -4 -4 -4 -4 -4 -5 -5 -5 -4 -4 -4 -4 -4 -4 -4 -4
-3 -3 -3 -3 -3 -3 -3 -3 -3 -3 -3 -3 -3 -4 -4 -4 -4 -4 -4 -4 -4 -4 -4 -4 -4 -4 -4 -5 -5 -5 -5 -5 -5 -6 -6 -5 -5 -5 -5 -5 -5 -5 -5
-3 -4 -4 -4 -4 -4 -4 -4 -4 -4 -4 -4 -4 -4 -5 -5 -5 -5 -5 -5 -5 -5 -5 -5 -5 -5 -5 -5 -5 -6 -6 -6 -6 -6 -6 -6 -6 -6 -5 -5 -6 -6 -6
-4 -4 -4 -4 -4 -4 -5 -5 -5 -5 -5 -5 -5 -5 -6 -6 -5 -5 -5 -5 -5 -5 -6 -6 -6 -6 -6 -6 -6 -6 -6 -7 -7 -7 -7 -7 -7 -7 -7 -6 -6 -6 -6
Wind_Speed
6 6 7 7 7 7 7 7 8 8 9 10 11 12 12 13 13 13 13 15 14 14 13 13 13 13 14 14 14 14 15 14 15 13 13 12 12 12 12 12 11 11 11
7 6 6 6 6 7 7 7 8 7 8 9 10 11 11 12 13 13 13 14 15 15 14 14 13 13 13 13 14 14 14 14 14 14 13 12 12 12 12 11 10 10 11
8 7 5 5 6 7 8 8 8 8 7 7 8 9 10 11 12 12 13 13 14 15 15 14 14 13 13 13 13 13 13 14 13 13 13 12 12 11 11 11 11 10 10
8 7 5 5 7 7 7 5 5 4 5 5 5 6 8 9 11 12 13 13 13 13 13 14 13 12 12 12 12 12 12 12 13 12 12 12 11 12 11 10 10 10 9
9 7 6 6 7 6 5 5 4 4 5 5 5 5 6 7 8 10 11 12 13 12 12 12 13 12 11 12 11 11 11 11 12 12 12 12 10 10 11 10 10 10 9
8 8 7 7 7 5 4 4 5 5 5 5 5 5 4 5 7 7 8 9 11 11 11 11 11 11 11 11 11 10 10 10 10 11 11 11 10 9 9 9 9 9 9
8 8 6 7 6 4 5 6 5 6 4 4 4 3 3 4 5 4 6 7 8 9 9 10 10 10 9 10 10 10 10 10 10 10 10 9 10 9 8 8 8 8 9
7 7 7 6 5 4 5 5 6 4 3 3 3 3 2 2 3 2 3 4 5 7 7 8 8 8 8 9 8 9 10 9 9 9 9 8 9 9 8 8 8 8 8
7 7 7 6 5 5 5 5 6 5 4 2 2 3 3 2 0 1 2 3 3 3 4 5 6 6 7 8 8 7 9 9 8 8 8 8 8 9 7 7 8 8 8
6 7 7 6 6 4 5 5 4 4 5 4 1 1 2 3 3 1 1 1 2 2 2 3 3 4 5 6 7 7 7 7 7 7 7 7 7 8 7 7 7 8 7
6 6 7 6 5 4 5 5 4 4 3 4 3 1 2 2 2 2 2 1 1 1 1 1 2 3 4 5 5 5 6 7 6 6 7 7 8 8 9 7 7 7 8
4 6 6 6 5 4 4 5 4 5 4 4 3 2 2 2 2 2 2 2 1 1 1 1 1 2 3 3 3 4 5 6 6 6 6 7 7 8 9 7 7 7 7
3 5 5 5 5 5 5 5 4 4 4 5 4 3 2 2 2 2 3 2 1 0 0 1 2 2 2 2 1 2 3 4 5 6 6 6 7 7 8 8 7 7 7
3 4 5 5 5 6 6 5 4 3 4 4 4 3 2 2 2 3 3 3 2 0 1 2 1 2 2 1 0 2 2 3 5 5 6 6 6 7 7 8 7 6 7
4 4 5 5 5 5 6 5 4 4 4 3 3 3 3 2 2 2 2 3 4 2 2 2 1 1 2 1 1 1 2 3 5 5 6 6 6 6 7 8 7 6 6
4 5 4 5 5 5 5 5 4 3 4 3 3 4 3 2 3 3 3 2 2 3 2 1 1 1 2 1 2 2 2 4 4 5 5 6 6 6 6 7 7 6 6
4 4 4 4 5 5 5 5 5 5 5 4 4 4 4 3 3 3 3 2 2 2 2 1 0 1 1 1 2 3 3 3 4 5 5 6 6 6 6 6 7 7 7
5 5 4 4 5 5 5 5 6 5 6 6 5 5 5 4 4 3 3 3 3 2 3 2 1 1 1 2 1 2 3 3 4 5 6 6 6 6 7 7 7 7 7
4 4 4 4 4 5 5 5 5 5 5 5 5 6 5 5 5 3 4 4 3 2 2 3 2 1 1 1 1 1 2 2 4 5 5 6 7 7 7 7 8 8 8
4 4 4 4 4 4 4 5 4 4 4 4 4 5 5 6 6 5 4 4 4 3 3 3 2 1 1 1 1 1 1 2 3 4 5 6 6 7 8 8 8 8 8
4 4 4 3 3 3 4 4 4 4 4 4 4 4 4 5 6 5 4 4 4 4 4 3 3 2 2 2 2 1 1 2 3 2 2 4 5 6 7 7 8 8 9
4 4 4 4 3 3 5 6 5 4 4 4 4 4 4 4 5 6 5 5 5 5 5 4 3 4 4 3 2 2 1 1 2 2 2 3 4 3 5 6 7 8 9
3 4 4 3 3 3 4 5 5 4 4 4 4 4 3 4 5 4 4 3 3 4 5 4 5 5 4 4 3 2 2 2 3 3 2 3 2 3 5 6 8 9 9
4 4 4 3 3 3 4 4 4 4 3 3 3 4 4 4 5 5 4 3 1 1 3 3 3 3 3 3 4 3 2 2 2 2 2 3 3 3 5 6 7 8 8
3 3 3 4 3 3 4 5 4 3 3 3 2 3 4 4 6 7 5 4 2 1 1 3 3 3 3 4 3 1 1 2 3 3 1 1 2 3 3 3 6 7 9
2 3 3 3 3 3 4 4 4 3 3 3 2 2 3 4 6 6 5 5 4 3 2 1 1 1 2 3 4 3 3 3 2 2 2 1 1 1 3 2 3 6 8
Wind_Direction
106 99 92 88 83 82 79 72 72 73 71 69 70 70 70 71 71 72 68 69 72 75 77 79 78 77 75 71 70 68 65 63 60 61 61 57 56 56 56 54 53 50 49
109 105 98 91 85 86 84 79 77 73 70 71 69 69 70 71 71 71 69 66 68 70 71 73 75 76 74 72 70 68 66 61 59 56 57 57 55 55 53 50 48 47 46
115 112 107 101 96 97 92 87 80 77 76 73 69 67 70 73 73 71 69 66 64 64 66 68 70 71 71 70 68 66 65 60 59 55 54 56 54 53 52 47 44 42 41
123 117 114 111 110 108 97 98 94 92 84 76 69 65 66 70 73 72 71 67 64 63 63 65 65 67 68 69 68 66 65 60 55 54 51 52 52 51 50 46 41 37 36
131 126 123 119 118 111 103 107 104 105 98 85 77 68 64 64 69 72 71 71 68 66 64 63 62 62 66 66 66 64 61 58 54 52 49 46 47 46 44 40 37 33 30
139 132 127 127 125 121 119 120 118 105 106 101 87 73 64 68 71 71 71 74 71 66 63 61 59 58 60 62 62 60 58 55 52 48 43 39 37 39 36 32 28 27 26
144 138 132 130 129 139 139 132 125 117 112 112 94 79 60 62 70 67 75 74 72 68 65 63 59 56 54 56 54 51 50 48 45 42 37 33 29 28 26 25 21 21 25
150 146 140 142 140 137 137 140 136 131 135 136 121 120 101 37 27 52 74 82 76 72 67 63 62 59 58 57 49 45 39 37 33 29 26 23 18 16 16 16 17 18 17
154 152 152 149 149 148 155 154 152 142 152 163 133 130 141 180 152 4 55 78 79 79 78 73 67 61 59 57 51 42 33 27 21 18 14 13 10 8 3 10 13 12 10
152 154 154 154 155 152 157 162 154 152 149 162 148 79 126 139 143 157 324 48 75 80 87 77 77 76 65 63 55 42 32 21 12 9 4 6 7 6 5 6 3 5 3
153 155 156 154 157 157 157 158 159 162 161 161 154 134 107 112 125 151 196 245 9 5 77 105 104 95 84 70 57 38 27 17 8 2 3 2 4 1 360 356 354 354 355
155 155 160 160 161 158 160 163 167 169 171 157 152 148 150 150 173 159 168 176 205 284 327 141 155 139 109 78 56 28 18 9 2 358 355 355 356 352 351 345 344 345 344
165 169 166 166 165 167 167 164 166 172 168 164 164 162 156 155 148 137 142 159 152 227 220 299 209 180 142 111 71 8 1 353 352 351 349 347 347 346 344 341 332 335 338
169 161 166 166 165 167 170 166 160 164 160 163 165 156 154 154 139 143 152 148 135 238 224 245 253 193 163 150 341 352 343 337 335 340 342 342 341 343 343 342 333 336 341
153 152 162 163 162 164 167 163 166 167 157 159 161 159 158 160 146 147 148 156 154 175 237 222 222 226 196 220 262 323 327 335 338 339 341 341 341 343 341 342 339 337 339
151 152 157 166 162 162 164 161 160 159 158 163 159 161 162 159 153 150 158 168 155 163 203 227 228 209 195 239 279 309 308 321 325 327 329 333 332 331 329 333 336 327 329
157 158 164 169 166 166 163 164 167 166 169 170 171 170 172 162 163 165 161 162 157 147 187 264 280 158 152 180 270 282 278 292 300 312 317 322 322 323 324 325 330 326 322
164 162 166 171 175 171 168 172 174 176 179 180 182 176 179 173 171 172 170 173 172 166 168 199 239 238 239 198 231 252 276 288 292 303 306 310 313 315 318 324 323 320 315
162 159 167 175 180 176 177 176 175 180 184 184 182 182 182 174 180 180 176 176 173 162 154 173 207 226 242 221 258 276 283 280 294 300 306 308 307 309 312 319 320 318 313
158 161 173 174 178 179 175 168 168 171 176 181 180 180 183 184 186 183 185 180 166 157 152 164 183 203 221 249 219 237 313 323 307 290 299 301 307 313 309 312 316 315 310
161 163 166 165 170 180 172 165 171 170 169 173 178 182 186 185 185 188 189 176 166 165 165 173 191 200 211 209 219 228 263 313 311 270 300 293 298 298 298 304 310 311 308
158 159 162 165 175 188 183 180 172 169 171 175 180 178 177 181 188 198 206 196 184 178 182 190 202 205 212 211 215 229 240 287 291 292 315 297 283 287 287 293 303 310 311
159 164 164 164 172 181 183 182 181 163 165 173 172 172 183 184 183 174 192 206 208 211 209 193 197 210 208 203 198 216 231 245 261 273 298 283 283 291 288 293 304 309 312
165 167 164 162 163 177 186 184 178 149 150 163 171 173 173 172 179 174 167 167 183 229 222 201 194 206 205 190 188 205 226 262 279 270 263 269 285 289 291 289 299 311 319
158 162 158 158 160 174 194 190 171 143 147 153 159 165 170 171 190 191 169 163 168 202 231 225 224 224 234 235 224 179 209 238 276 275 266 256 276 296 289 269 292 311 319
144 152 151 153 158 166 192 190 172 151 153 157 153 163 196 198 205 199 175 169 181 198 191 187 211 239 256 251 250 224 210 215 245 267 266 259 269 321 307 285 286 307 313
Height
1529 1531 1533 1535 1536 1538 1540 1541 1543 1544 1546 1547 1548 1549 1550 1551 1551 1552 1553 1554 1555 1556 1557 1558 1558 1559 1559 1560 1560 1561 1561 1562 1562 1562 1562 1563 1563 1563 1563 1563 1563 1563 1563
1528 1530 1532 1534 1535 1537 1539 1541 1542 1544 1545 1546 1547 1548 1549 1551 1551 1552 1553 1554 1555 1556 1557 1557 1558 1558 1559 1559 1560 1560 1561 1561 1562 1562 1562 1562 1562 1562 1562 1562 1562 1562 1562
1527 1529 1531 1532 1534 1536 1538 1540 1541 1543 1544 1546 1547 1548 1549 1550 1551 1552 1553 1554 1554 1555 1556 1556 1557 1558 1558 1559 1559 1560 1560 1561 1561 1561 1561 1561 1562 1562 1562 1562 1562 1562 1561
1525 1527 1529 1531 1533 1535 1537 1538 1540 1541 1543 1544 1546 1547 1548 1550 1551 1552 1552 1553 1554 1555 1555 1556 1556 1557 1557 1558 1558 1559 1559 1560 1560 1560 1560 1561 1561 1561 1561 1561 1560 1560 1560
1523 1525 1527 1529 1531 1533 1534 1536 1538 1540 1541 1543 1545 1546 1548 1549 1550 1551 1552 1552 1553 1554 1554 1555 1555 1556 1556 1557 1557 1558 1558 1558 1559 1559 1559 1559 1559 1559 1559 1559 1559 1559 1559
1521 1523 1525 1527 1529 1531 1532 1535 1536 1538 1540 1542 1543 1545 1547 1548 1549 1550 1551 1552 1552 1553 1554 1554 1554 1555 1555 1555 1556 1556 1557 1557 1557 1557 1558 1558 1558 1558 1558 1558 1558 1557 1557
1518 1520 1522 1525 1527 1529 1530 1532 1534 1536 1538 1540 1542 1543 1545 1547 1548 1549 1550 1550 1551 1552 1552 1553 1553 1553 1554 1554 1554 1554 1555 1555 1556 1556 1556 1556 1556 1556 1556 1556 1555 1555 1555
1515 1518 1520 1522 1524 1526 1528 1530 1531 1533 1535 1538 1539 1541 1543 1547 1547 1547 1548 1549 1549 1550 1550 1551 1551 1552 1552 1552 1552 1553 1553 1553 1553 1554 1554 1554 1554 1554 1554 1553 1553 1552 1552
1512 1514 1517 1519 1521 1523 1525 1527 1529 1530 1532 1535 1537 1539 1541 1542 1543 1545 1545 1546 1547 1548 1548 1549 1549 1550 1550 1550 1550 1551 1551 1551 1551 1551 1551 1551 1551 1551 1551 1551 1550 1550 1549
1510 1512 1514 1516 1518 1520 1522 1524 1526 1528 1530 1532 1534 1536 1538 1539 1541 1541 1543 1544 1544 1545 1546 1546 1547 1547 1547 1548 1548 1548 1548 1548 1549 1549 1549 1549 1548 1548 1548 1547 1547 1547 1546
1506 1509 1511 1513 1515 1517 1519 1521 1523 1525 1527 1529 1531 1533 1534 1536 1537 1538 1539 1540 1541 1542 1543 1543 1544 1544 1545 1545 1545 1546 1546 1546 1546 1546 1546 1546 1545 1545 1544 1544 1544 1544 1543
1503 1505 1507 1509 1511 1513 1515 1517 1520 1522 1524 1526 1528 1530 1531 1532 1534 1535 1535 1536 1537 1539 1540 1540 1541 1541 1542 1542 1542 1543 1543 1543 1543 1543 1543 1542 1542 1542 1541 1541 1541 1540 1540
1498 1501 1503 1506 1508 1510 1512 1514 1516 1518 1520 1522 1524 1526 1528 1529 1531 1532 1533 1533 1534 1535 1536 1537 1538 1538 1538 1539 1539 1539 1540 1540 1540 1540 1540 1539 1539 1538 1537 1537 1537 1537 1536
1495 1498 1500 1502 1504 1507 1509 1511 1512 1514 1517 1519 1520 1522 1524 1525 1527 1529 1530 1530 1531 1532 1533 1534 1534 1535 1535 1536 1536 1536 1537 1537 1537 1537 1537 1536 1536 1535 1534 1534 1534 1533 1533
1491 1494 1496 1499 1501 1503 1505 1507 1508 1510 1513 1515 1516 1518 1520 1521 1523 1525 1526 1527 1528 1528 1529 1530 1531 1532 1533 1533 1533 1533 1534 1534 1534 1534 1533 1533 1532 1532 1531 1530 1530 1530 1529
1487 1490 1492 1495 1497 1499 1501 1503 1504 1506 1509 1510 1512 1514 1516 1517 1519 1521 1522 1523 1524 1525 1525 1526 1528 1529 1530 1530 1530 1530 1530 1531 1531 1530 1530 1529 1529 1529 1528 1527 1526 1526 1525
1484 1486 1488 1491 1493 1494 1496 1498 1500 1502 1504 1506 1508 1510 1511 1513 1515 1516 1518 1519 1520 1521 1521 1523 1525 1525 1526 1527 1527 1527 1527 1527 1527 1527 1527 1526 1526 1525 1525 1524 1522 1522 1522
1480 1482 1484 1486 1488 1490 1492 1494 1496 1498 1500 1501 1503 1505 1507 1509 1510 1512 1513 1515 1516 1517 1518 1518 1520 1521 1522 1523 1523 1523 1523 1524 1524 1523 1523 1523 1522 1522 1521 1520 1519 1518 1518
1476 1478 1480 1482 1484 1486 1488 1490 1492 1494 1495 1497 1499 1501 1503 1504 1506 1507 1509 1511 1512 1513 1514 1515 1516 1517 1518 1519 1519 1520 1520 1520 1520 1519 1519 1519 1518 1518 1517 1516 1515 1514 1514
1472 1474 1476 1478 1480 1482 1484 1485 1487 1489 1491 1493 1495 1497 1498 1500 1501 1503 1505 1506 1507 1509 1510 1511 1512 1513 1514 1515 1516 1515 1515 1515 1515 1515 1515 1514 1514 1513 1513 1512 1511 1510 1510
1468 1470 1472 1474 1476 1478 1479 1481 1483 1485 1487 1489 1490 1492 1494 1496 1497 1499 1501 1502 1503 1504 1505 1507 1508 1509 1509 1510 1511 1511 1511 1511 1511 1511 1511 1510 1510 1509 1509 1508 1507 1506 1506
1465 1467 1469 1470 1472 1474 1476 1478 1479 1481 1483 1484 1486 1488 1490 1491 1493 1495 1496 1497 1499 1500 1501 1502 1503 1504 1505 1506 1507 1507 1507 1506 1506 1507 1507 1506 1506 1505 1504 1504 1503 1502 1501
1461 1463 1465 1467 1468 1470 1472 1474 1476 1477 1479 1480 1482 1484 1485 1487 1489 1490 1492 1493 1494 1495 1497 1498 1499 1500 1501 1502 1503 1503 1503 1503 1502 1502 1502 1501 1501 1500 1500 1499 1499 1498 1497
1458 1460 1461 1463 1465 1467 1469 1470 1472 1473 1475 1476 1478 1480 1481 1483 1485 1486 1488 1489 1490 1491 1492 1494 1495 1496 1497 1498 1499 1499 1499 1499 1499 1499 1498 1497 1497 1496 1496 1496 1495 1494 1493
1455 1457 1458 1460 1461 1463 1465 1466 1468 1469 1471 1473 1475 1476 1478 1479 1481 1483 1484 1485 1486 1487 1489 1490 1491 1492 1493 1494 1495 1495 1495 1495 1494 1494 1494 1494 1493 1492 1491 1491 1491 1490 1488
1452 1454 1455 1457 1458 1460 1462 1463 1464 1465 1467 1469 1471 1472 1474 1476 1477 1479 1480 1481 1481 1483 1484 1485 1486 1487 1488 1489 1490 1491 1491 1490 1490 1490 1490 1490 1489 1488 1487 1486 1486 1485 1484